[[{"header":{"parameterUnit":"m.s-1","parameterCategory":1,"la1":30.2991,"la2":30.254,"lo1":-89.0895,"lo2":-89.0444,"dy":0.0017,"dx":0.0017,"nx":28,"ny":28,"refTime":"2025-07-29T09:00:00:Z","depth":0,"parameterNumber":2,"parameterNumberName":"U-component_of_WINDS"},"data":[0,0,0,0,0,0,0,0,0,0,0,0,0,0,0,0,0,0,0,0,0,0,0,0,0,0,0,0,0,0,0,0,0,0,0,0,0,0,0,0,0,0,0,0,0,0,0,0,0,0,0,0,0,0,0,0,0,0,1.6916,1.6917,0,1.7036,1.7037,1.7039,1.7066,1.7065,1.7064,1.7064,1.7189,1.7193,1.7197,0,0,0,0,0,0,0,0,0,0,0,0,0,1.6713,1.6716,1.6916,1.6917,1.6919,1.7036,1.7037,1.7039,1.7066,1.7065,1.7064,1.7063,1.7187,1.7192,1.7197,0,0,0,0,0,0,0,0,0,0,0,0,0,1.6814,1.6718,1.6915,1.6946,1.695,1.7035,1.7037,1.7039,1.7066,1.7065,1.7064,1.7063,1.7186,1.7192,1.7198,1.7261,0,0,1.7217,1.7219,0,0,0,0,0,0,0,0,1.6808,1.6821,1.694,1.6944,1.6949,1.7035,1.7012,1.7114,1.7067,1.7022,1.7064,1.7062,1.7139,1.7149,1.7174,1.7267,1.7272,1.7217,1.7221,1.7224,1.7225,0,0,0,0,0,0,0,1.6801,1.6816,1.6963,1.6942,1.6947,1.6955,1.6968,1.7031,1.7086,1.7026,1.7028,1.7042,1.7141,1.7168,1.7177,1.7274,1.7217,1.7222,1.7226,1.7229,1.7427,1.7428,0,0,0,0,0,0,1.6788,1.681,1.696,1.6967,1.6874,1.696,1.6974,1.7008,1.7086,1.7096,1.7043,1.7043,1.7158,1.717,1.7182,1.7261,1.7224,1.7229,1.7233,1.7425,1.7427,1.7429,0,0,0,0,0,0,1.6784,1.6801,1.6955,1.6889,1.6909,1.6965,1.7003,1.7012,1.7039,1.7098,1.7109,1.7061,1.7157,1.7173,1.7241,1.7266,1.7232,1.7238,1.7423,1.7426,1.7428,1.7421,0,0,0,0,0,0,1.6778,1.6799,1.6823,1.689,1.6913,1.7011,1.7004,1.7015,1.7049,1.705,1.7117,1.7127,1.7158,1.7232,1.7247,1.7274,1.7242,1.7421,1.7424,1.7427,1.7419,1.7423,1.7426,0,0,0,0,0,1.677,1.6817,1.6824,1.6842,1.6944,1.7013,1.7026,1.7059,1.7051,1.7076,1.7114,1.7125,1.7261,1.7239,1.7256,1.7285,1.742,1.7423,1.7427,1.7418,1.7422,1.7426,0,0,0,0,0,0,1.6752,1.6826,1.6835,1.6904,1.6952,1.7017,1.7049,1.7063,1.7114,1.7113,1.7153,1.7168,1.7234,1.7267,1.724,1.7351,1.734,1.7347,1.7327,1.7332,1.7335,1.7326,1.7248,0,0,0,0,0,1.6756,1.6806,1.6868,1.6923,1.6946,1.6994,1.7025,1.7047,1.7098,1.7118,1.7162,1.7212,1.7266,1.7301,1.7354,1.7424,1.744,1.7453,1.7456,1.7459,1.7464,1.7505,1.7512,1.744,1.744,1.744,0,0,1.6765,1.6811,1.684,1.692,1.696,1.7011,1.701,1.7064,1.7103,1.7127,1.7194,1.7228,1.7287,1.7356,1.7389,1.7385,1.7488,1.7463,1.7464,1.7469,1.7509,1.7516,1.7522,1.7442,1.7442,1.7442,0,0,1.6807,1.6847,1.6897,1.6937,1.6997,1.7029,1.7041,1.7104,1.7128,1.7196,1.7215,1.7262,1.7354,1.7395,1.7428,1.7487,1.75,1.7504,1.7521,1.756,1.7566,1.7571,1.7593,1.76,1.7509,1.7509,1.7509,0,1.6811,1.6888,1.6922,1.6975,1.701,1.7034,1.7086,1.7123,1.7197,1.7222,1.7216,1.7333,1.7374,1.7454,1.7469,1.7495,1.751,1.7496,1.7562,1.7568,1.7573,1.7594,1.7602,1.7509,1.7509,1.7509,1.7509,0,1.6889,1.6942,1.6976,1.7047,1.7086,1.7138,1.7181,1.7217,1.7236,1.7268,1.7338,1.7388,1.7452,1.7473,1.7491,1.7556,1.7552,1.7554,1.7544,1.7579,1.76,1.7608,1.751,1.751,1.751,1.7509,0,0,1.6922,1.7012,1.7024,1.7057,1.7125,1.7167,1.7222,1.7284,1.7314,1.7365,1.7411,1.7489,1.7492,1.7529,1.7553,1.7588,1.7632,1.7586,1.7588,1.7593,1.7708,1.7706,1.7714,1.7641,1.7643,1.7644,1.7703,0,1.6973,1.7069,1.7103,1.7183,1.7233,1.7257,1.7304,1.7352,1.7384,1.7432,1.7468,1.7523,1.7521,1.7544,1.758,1.7619,1.7656,1.7615,1.7686,1.7688,1.767,1.7725,1.7723,1.7776,1.7711,1.7712,1.7713,0,1.7045,1.7096,1.7181,1.7244,1.7267,1.7308,1.7369,1.7414,1.7469,1.749,1.7532,1.7554,1.7613,1.7599,1.7681,1.7653,1.7684,1.7708,1.7711,1.7719,1.7703,1.7735,1.7794,1.7802,1.7726,1.7725,1.7724,0,1.7061,1.7152,1.7215,1.7242,1.7317,1.7346,1.7379,1.7432,1.7468,1.7521,1.7545,1.7604,1.7637,1.7683,1.772,1.7707,1.78,1.7789,1.7819,1.7819,1.7838,1.7836,1.7903,1.7857,1.7857,1.7857,1.7857,0,1.7114,1.7165,1.7223,1.7261,1.732,1.7358,1.7415,1.745,1.7498,1.7544,1.7569,1.7612,1.7659,1.7709,1.7739,1.7803,1.7818,1.7837,1.7844,1.7835,1.7832,1.7856,1.7853,1.7859,1.7859,1.7858,1.7858,0,1.7141,1.7182,1.7252,1.7318,1.7335,1.7376,1.7432,1.7471,1.7505,1.7564,1.758,1.7633,1.7693,1.7735,1.7812,1.7833,1.7902,1.7909,1.7883,1.7886,1.7915,1.7911,1.7999,1.8012,1.7958,1.7958,1.7958,0,1.7172,1.7212,1.7282,1.7315,1.7348,1.74,1.7436,1.7476,1.7513,1.758,1.7611,1.7673,1.7724,1.782,1.7866,1.7925,1.7934,1.7961,1.7943,1.7933,1.7935,1.7932,1.7937,1.7963,1.7963,1.7964,1.7964,0,1.7223,1.7242,1.7293,1.7352,1.7395,1.7443,1.7492,1.7517,1.7566,1.7607,1.7668,1.7708,1.7787,1.7849,1.7913,1.7948,1.7965,1.7969,1.798,1.797,1.7954,1.7963,1.789,1.7967,1.7967,1.7967,1.7966,1.7966,1.7254,1.7291,1.7346,1.7403,1.7443,1.7489,1.7529,1.7567,1.7619,1.7686,1.7707,1.7771,1.7827,1.7915,1.7951,1.8002,1.8001,1.8015,1.8019,1.8022,1.8022,1.7945,1.8014,1.8014,1.8014,1.8014,1.8014,0,1.7306,1.7343,1.7395,1.7462,1.7507,1.7518,1.7573,1.761,1.7666,1.7716,1.7767,1.7838,1.7898,1.7949,1.8011,1.8043,1.8052,1.8058,1.8056,1.8064,1.802,1.8005,1.805,1.805,1.8049,1.8049,1.8049,1.8049,1.7339,1.7402,1.7427,1.7512,1.7549,1.7611,1.7641,1.7684,1.7724,1.7802,1.7852,1.7885,1.7936,1.8002,1.8058,1.8072,1.8094,1.8098,1.8114,1.8071,1.8067,1.8063,1.8049,1.8103,1.8103,1.8154,1.8154,1.8154]},{"header":{"parameterUnit":"m.s-1","parameterCategory":1,"la1":30.2991,"la2":30.254,"lo1":-89.0895,"lo2":-89.0444,"dy":0.0017,"dx":0.0017,"nx":28,"ny":28,"refTime":"2025-07-29T09:00:00:Z","depth":0,"parameterNumber":3,"parameterNumberName":"V-component_of_WINDS"},"data":[0,0,0,0,0,0,0,0,0,0,0,0,0,0,0,0,0,0,0,0,0,0,0,0,0,0,0,0,0,0,0,0,0,0,0,0,0,0,0,0,0,0,0,0,0,0,0,0,0,0,0,0,0,0,0,0,0,0,0.0104,0.0104,0,0.0071,0.007,0.007,0.0032,0.0032,0.0031,0.0031,-0.0001,-0.0001,-0.0002,0,0,0,0,0,0,0,0,0,0,0,0,0,0.0138,0.0137,0.0104,0.0104,0.0103,0.0071,0.007,0.007,0.0033,0.0032,0.0031,0.0031,-0.0001,-0.0001,-0.0002,0,0,0,0,0,0,0,0,0,0,0,0,0,0.0116,0.0137,0.0104,0.0081,0.0078,0.0071,0.007,0.007,0.0033,0.0032,0.0031,0.003,-0.0001,-0.0001,-0.0002,0.0012,0,0,-0.0003,-0.0004,0,0,0,0,0,0,0,0,0.0117,0.0115,0.0085,0.0082,0.008,0.0055,0.007,0.005,0.0033,0.005,0.0031,0.003,0.0018,0.0016,0.0012,0.001,0.0009,-0.0003,-0.0004,-0.0004,-0.0004,0,0,0,0,0,0,0,0.0119,0.0116,0.0091,0.0084,0.0081,0.0073,0.0068,0.0066,0.0039,0.0049,0.0046,0.0042,0.0017,0.0012,0.0011,0.0008,-0.0003,-0.0004,-0.0004,-0.0004,0.0016,0.0017,0,0,0,0,0,0,0.0123,0.0117,0.0092,0.009,0.0097,0.0073,0.0068,0.0064,0.0039,0.0035,0.0043,0.0041,0.0014,0.0011,0.001,0.0023,-0.0004,-0.0004,-0.0005,0.0015,0.0016,0.0017,0,0,0,0,0,0,0.0124,0.0121,0.0093,0.0103,0.0099,0.0073,0.0068,0.0063,0.0059,0.0035,0.003,0.0043,0.0013,0.001,0.0011,0.0022,-0.0005,-0.0005,0.0014,0.0015,0.0016,0.0051,0,0,0,0,0,0,0.0125,0.0122,0.0126,0.0103,0.0098,0.0095,0.0069,0.0063,0.0058,0.0054,0.0034,0.003,0.0012,0.0012,0.0011,0.002,-0.0005,0.0013,0.0015,0.0016,0.0049,0.0054,0.0058,0,0,0,0,0,0.0127,0.0138,0.0127,0.0124,0.0103,0.0096,0.0093,0.0072,0.0059,0.0063,0.0048,0.003,0.0021,0.0013,0.0011,0.002,0.0012,0.0014,0.0016,0.0047,0.0053,0.0057,0,0,0,0,0,0,0.0164,0.0135,0.0122,0.0126,0.0114,0.0089,0.0094,0.0078,0.007,0.0067,0.0042,0.0037,0.0041,0.0031,0.0022,0.0032,0.0014,0.0016,0.0038,0.0043,0.0048,0.005,-0.0006,0,0,0,0,0,0.0173,0.0169,0.0143,0.015,0.0144,0.012,0.0116,0.0101,0.0087,0.0082,0.0067,0.0055,0.0049,0.0046,0.0039,0.0048,0.0043,0.0054,0.0058,0.0061,0.0063,0.0066,0.0071,0.0023,0.0023,0.0023,0,0,0.0191,0.0174,0.0173,0.0157,0.0145,0.0142,0.0116,0.0114,0.0111,0.0082,0.0081,0.007,0.0055,0.006,0.0061,0.0051,0.0075,0.0064,0.0067,0.0066,0.0069,0.0073,0.0077,0.0024,0.0024,0.0024,0,0,0.0222,0.0209,0.0212,0.0201,0.0184,0.0168,0.0169,0.0147,0.0138,0.0137,0.0115,0.0112,0.0103,0.0092,0.0086,0.0113,0.0097,0.0112,0.0134,0.0137,0.0141,0.0144,0.0154,0.0157,0.0114,0.0114,0.0114,0,0.0247,0.024,0.0216,0.0215,0.0208,0.0181,0.0184,0.0175,0.0157,0.0153,0.0143,0.013,0.0118,0.012,0.0126,0.0122,0.0123,0.0114,0.0142,0.0145,0.0148,0.0157,0.016,0.0116,0.0116,0.0115,0.0115,0,0.0271,0.0267,0.0272,0.0254,0.0248,0.0249,0.0226,0.0223,0.0208,0.0194,0.0193,0.0178,0.0168,0.0167,0.0153,0.0167,0.0161,0.0147,0.0128,0.0155,0.0162,0.0166,0.0119,0.0118,0.0117,0.0117,0,0,0.0325,0.0293,0.0295,0.0287,0.0265,0.0262,0.0262,0.0251,0.0249,0.0238,0.0237,0.023,0.0216,0.0209,0.0194,0.0197,0.0219,0.0182,0.0181,0.0189,0.0233,0.0244,0.0248,0.0208,0.0209,0.0209,0.0234,0,0.0351,0.0349,0.0327,0.0331,0.0327,0.0301,0.0301,0.0289,0.0275,0.027,0.0256,0.0251,0.0233,0.0229,0.0231,0.0216,0.0227,0.0214,0.0208,0.0208,0.0212,0.0252,0.0263,0.0287,0.0237,0.0237,0.0238,0,0.0382,0.0371,0.0375,0.0353,0.035,0.0351,0.0339,0.0334,0.032,0.031,0.0302,0.0284,0.0283,0.0266,0.0265,0.0256,0.0252,0.0245,0.0245,0.0243,0.0224,0.0251,0.0295,0.0298,0.0242,0.0242,0.0242,0,0.042,0.0407,0.0407,0.04,0.0375,0.0376,0.0366,0.035,0.0345,0.0335,0.0331,0.0322,0.0316,0.031,0.029,0.0279,0.0291,0.0272,0.0283,0.0283,0.0286,0.0286,0.0329,0.0285,0.0284,0.0284,0.0284,0,0.0452,0.0455,0.0423,0.0423,0.0426,0.0402,0.0405,0.0393,0.0379,0.0377,0.0354,0.0352,0.0327,0.0322,0.0307,0.0308,0.0306,0.0298,0.0294,0.03,0.0301,0.0297,0.0295,0.0285,0.0285,0.0285,0.0285,0,0.0495,0.0474,0.0472,0.0448,0.0442,0.0445,0.0425,0.0424,0.041,0.0407,0.0405,0.0382,0.0375,0.0355,0.0344,0.0334,0.0339,0.0332,0.0344,0.0341,0.0353,0.0352,0.0395,0.04,0.0352,0.0353,0.0353,0,0.0516,0.0517,0.0494,0.049,0.048,0.0475,0.0469,0.0446,0.0441,0.0424,0.0425,0.0417,0.0409,0.04,0.0383,0.0374,0.0366,0.0382,0.0365,0.037,0.0366,0.0366,0.0366,0.0385,0.0386,0.0386,0.0387,0,0.0556,0.0545,0.0537,0.0526,0.0519,0.051,0.0498,0.0497,0.0471,0.0466,0.0459,0.0453,0.0441,0.0433,0.0422,0.0412,0.0395,0.0392,0.0394,0.04,0.0407,0.0403,0.0354,0.0391,0.0391,0.0391,0.039,0.039,0.0588,0.0588,0.0571,0.0563,0.0552,0.0542,0.054,0.0525,0.0518,0.0506,0.0493,0.0487,0.0473,0.0455,0.0447,0.0442,0.0433,0.0436,0.0437,0.0438,0.0441,0.0408,0.044,0.044,0.044,0.044,0.044,0,0.0627,0.0614,0.0607,0.0592,0.0586,0.057,0.0557,0.0553,0.0548,0.0535,0.0527,0.0519,0.0511,0.0493,0.0484,0.0484,0.0476,0.0482,0.0482,0.048,0.0449,0.0448,0.0489,0.0489,0.0489,0.0489,0.0489,0.0489,0.0646,0.0645,0.0632,0.0626,0.0614,0.0607,0.0601,0.0592,0.0582,0.0573,0.0566,0.0554,0.0539,0.0529,0.0521,0.0516,0.0514,0.0522,0.0515,0.0487,0.0482,0.0477,0.0476,0.0522,0.0522,0.0545,0.0546,0.0546]}]]